This demonstration page uses our WeatherBlox Daily Observations layout. Learn more.

Left ArrowRight Arrow

Hourly Observations for January 12, 2016

Temp ( °F °C ) Dew Point ( °F °C ) Humidity (%) Winds ( mph kmh ) Pressure ( in mb ) Visibility ( mi km ) Precip ( " mm )
12:59 am 00:59 Mostly Cloudy 34 1.1 16 -8.9 48 48 SW 6 9 30.14 1021 10 16 0.00 0.00
1:59 am 01:59 Mostly Cloudy 36 2.2 16 -8.9 44 44 SW 6 9 30.15 1021 10 16 0.00 0.00
2:59 am 02:59 Mostly Cloudy 35 1.7 16 -8.9 46 46 SSW 7 11 30.14 1021 10 16 0.00 0.00
3:59 am 03:59 Mostly Cloudy 35 1.7 16 -8.9 46 46 SW 5 7 30.11 1020 10 16 0.00 0.00
4:59 am 04:59 Cloudy 37 2.8 17 -8.3 44 44 SSW 5 7 30.10 1019 10 16 0.00 0.00
5:59 am 05:59 Mostly Cloudy 37 2.8 16 -8.9 42 42 SSW 8 13 30.10 1019 10 16 0.00 0.00
6:59 am 06:59 Mostly Cloudy 36 2.2 16 -8.9 44 44 SSW 9 15 30.10 1019 10 16 0.00 0.00
7:59 am 07:59 Mostly Sunny 37 2.8 17 -8.3 44 44 SSW 8 13 30.08 1019 10 16 0.00 0.00
8:59 am 08:59 Sunny 41 5 18 -7.8 39 39 SSW 10 17 30.06 1018 10 16 0.00 0.00
9:59 am 09:59 Mostly Sunny 44 6.7 19 -7.2 37 37 SSW 12 19 30.04 1017 10 16 0.00 0.00
10:59 am 10:59 Mostly Sunny 47 8.3 19 -7.2 33 33 SSW 17 28 30.01 1016 10 16 0.00 0.00
11:59 am 11:59 Partly Cloudy 49 9.4 18 -7.8 29 29 SW 15 24 29.94 1014 10 16 0.00 0.00
12:59 pm 12:59 Partly Cloudy 51 10.6 19 -7.2 28 28 SW 15 24 29.88 1012 10 16 0.00 0.00
1:59 pm 13:59 Partly Cloudy 53 11.7 20 -6.7 27 27 SW 18 30 29.83 1010 10 16 0.00 0.00
2:59 pm 14:59 Mostly Cloudy 53 11.7 20 -6.7 27 27 SW 20 31 29.79 1009 10 16 0.00 0.00
3:59 pm 15:59 Mostly Cloudy 53 11.7 20 -6.7 27 27 SW 14 22 29.79 1009 10 16 0.00 0.00
4:59 pm 16:59 Mostly Sunny 51 10.6 18 -7.8 27 27 SW 18 30 29.79 1009 10 16 0.00 0.00
5:59 pm 17:59 Mostly Cloudy 50 10 19 -7.2 29 29 WSW 9 15 29.81 1010 10 16 0.00 0.00
6:59 pm 18:59 Cloudy 50 10 22 -5.6 33 33 W 20 31 29.85 1011 10 16 0.00 0.00
7:59 pm 19:59 Mostly Clear 48 8.9 24 -4.4 39 39 W 20 31 29.87 1012 10 16 0.00 0.00
8:59 pm 20:59 Clear 47 8.3 24 -4.4 41 41 W 16 26 29.89 1012 10 16 0.00 0.00
9:59 pm 21:59 Clear 45 7.2 19 -7.2 35 35 W 21 33 29.92 1013 10 16 0.00 0.00
10:59 pm 22:59 Clear 44 6.7 21 -6.1 40 40 W 22 35 29.96 1014 10 16 0.00 0.00
11:59 pm 23:59 Clear 42 5.6 15 -9.4 33 33 WNW 24 39 29.98 1015 10 16 0.00 0.00

Powered by AerisWeather